CW4610 Weather Reports


Display with metric or nautical units.
time (UTC)temp
F
wind
direction
speed
MPH
gust
MPH
rain 1hr
in
rain 24hr
in
rain mn
in
humidity
%
barometer
mb
20260906222019 80 203 5.0 8.0 0.00 0.00 0.00 46 1013.5
20260906221019 80 180 4.0 7.0 0.00 0.00 0.00 46 1013.5
20260906220019 79 225 5.0 9.0 0.00 0.00 0.00 46 1013.5
20260906215018 79 180 5.0 9.0 0.00 0.00 0.00 46 1013.5
20260906214019 79 180 5.0 9.0 0.00 0.00 0.00 45 1013.8
20260906213019 78 158 3.0 7.0 0.00 0.00 0.00 48 1013.9
20260906212019 78 180 5.0 7.0 0.00 0.00 0.00 46 1014.0
20260906211018 77 225 3.0 7.0 0.00 0.00 0.00 47 1014.0
20260906210019 77 248 4.0 7.0 0.00 0.00 0.00 51 1014.0
20260906205019 77 225 3.0 6.0 0.00 0.00 0.00 51 1014.1
20260906204059 75 180 3.0 5.0 0.00 0.00 0.00 54 1014.4
20260906203019 74 225 2.0 4.0 0.00 0.00 0.00 57 1014.5
20260906202019 73 248 1.0 2.0 0.00 0.00 0.00 61 1014.5
20260906201018 72 225 2.0 5.0 0.00 0.00 0.00 65 1014.7
20260906200019 71 203 2.0 3.0 0.00 0.00 0.00 71 1014.9
20260906195019 71 225 2.0 4.0 0.00 0.00 0.00 69 1015.0
20260906194019 70 248 1.0 2.0 0.00 0.00 0.00 72 1015.1
20260906193059 69 248 3.0 5.0 0.00 0.00 0.00 72 1015.4
20260906192019 68 225 2.0 4.0 0.00 0.00 0.00 74 1015.5
20260906191058 67 248 2.0 3.0 0.00 0.00 0.00 76 1015.6
20260906190018 66 315 1.0 4.0 0.00 0.00 0.00 79 1015.9
20260906185018 64 180 1.0 4.0 0.00 0.00 0.00 81 1016.0
20260906184019 63 225 3.0 6.0 0.00 0.00 0.00 83 1016.2
20260906183018 61 248 2.0 4.0 0.00 0.00 0.00 88 1016.4
20260906182018 59 180 2.0 5.0 0.00 0.00 0.00 89 1016.5
20260906181018 59 225 2.0 4.0 0.00 0.00 0.00 90 1016.6
20260906180059 58 23 1.0 3.0 0.00 0.00 0.00 90 1016.6
20260906175059 58 248 1.0 2.0 0.00 0.00 0.00 92 1016.6
20260906174018 58 23 0.0 2.0 0.00 0.00 0.00 92 1016.9
20260906173019 57 0 1.0 2.0 0.00 0.00 0.00 92 1017.0
20260906172018 57 23 0.0 1.0 0.00 0.00 0.00 93 1017.0
20260906171019 57 338 1.0 2.0 0.00 0.00 0.00 94 1017.1
20260906170058 56 90 1.0 2.0 0.00 0.00 0.00 95 1017.1
20260906165018 56 45 1.0 2.0 0.00 0.00 0.00 95 1017.1
20260906164018 56 0 0.0 0.0 0.00 0.00 0.00 96 1017.2
20260906163018 56 0 1.0 3.0 0.00 0.00 0.00 96 1017.2
20260906162019 55 0 2.0 4.0 0.00 0.00 0.00 97 1017.2
20260906161019 55 45 2.0 3.0 0.00 0.00 0.00 97 1017.4
20260906160017 54 0 1.0 3.0 0.00 0.00 0.00 97 1017.4
20260906155019 54 45 0.0 1.0 0.00 0.01 0.00 97 1017.4
20260906154019 54 45 1.0 2.0 0.00 0.01 0.00 97 1017.2
20260906153018 53 338 0.0 2.0 0.00 0.01 0.00 97 1017.3
20260906152017 53 0 0.0 2.0 0.00 0.01 0.00 97 1017.3
20260906151018 53 68 1.0 3.0 0.00 0.01 0.00 97 1017.2
20260906150018 53 23 2.0 4.0 0.00 0.01 0.00 97 1017.2
20260906145018 53 23 2.0 4.0 0.00 0.01 0.00 96 1017.2
20260906144018 53 23 2.0 4.0 0.00 0.01 0.00 96 1017.2
20260906143017 53 23 2.0 3.0 0.00 0.01 0.00 96 1017.1
20260906142058 53 23 3.0 5.0 0.00 0.01 0.00 96 1017.1
20260906141018 53 23 2.0 4.0 0.00 0.01 0.00 96 1017.0
20260906140101 53 0 2.0 3.0 0.00 0.01 0.00 96 1017.0
20260906135018 53 315 2.0 3.0 0.00 0.01 0.00 96 1017.0
20260906134020 53 315 3.0 4.0 0.00 0.01 0.00 96 1016.9
20260906133020 53 0 1.0 3.0 0.00 0.01 0.00 96 1016.8
20260906132100 53 5 0.0 0.0 0.00 0.01 0.00 96 1016.8
20260906131019 53 0 1.0 2.0 0.00 0.01 0.00 96 1016.9
20260906130020 52 0 0.0 1.0 0.00 0.01 0.00 96 1017.0
20260906125020 52 355 0.0 0.0 0.00 0.05 0.00 96 1017.0
20260906124034 52 0 0.0 1.0 0.00 0.05 0.00 95 1017.1
20260906123019 52 338 1.0 2.0 0.00 0.05 0.00 96 1017.1
20260906122020 52 338 1.0 2.0 0.00 0.05 0.00 96 1017.1
20260906121019 52 338 1.0 2.0 0.00 0.05 0.00 96 1017.1
20260906120020 52 338 0.0 2.0 0.00 0.05 0.00 96 1017.1
20260906115020 52 23 0.0 2.0 0.00 0.05 0.00 96 1017.1
20260906114020 52 23 1.0 2.0 0.00 0.05 0.00 96 1017.1
20260906113020 51 0 1.0 2.0 0.00 0.05 0.00 95 1017.1
20260906112059 52 0 1.0 2.0 0.00 0.05 0.00 95 1017.1
20260906111020 52 0 1.0 2.0 0.00 0.05 0.00 95 1017.1
20260906110019 52 5 0.0 0.0 0.00 0.05 0.00 95 1017.1
20260906105059 52 0 1.0 2.0 0.00 0.05 0.00 96 1017.1
20260906104020 52 49 0.0 0.0 0.00 0.05 0.00 95 1017.1
20260906103019 51 49 0.0 0.0 0.00 0.05 0.00 95 1017.1
20260906102020 51 49 0.0 0.0 0.00 0.05 0.00 95 1017.1
20260906101059 51 49 0.0 0.0 0.00 0.05 0.00 95 1017.1
20260906100020 52 45 0.0 2.0 0.00 0.05 0.00 95 1017.1
20260906095019 52 23 2.0 3.0 0.00 0.05 0.00 94 1017.1
20260906094059 52 23 0.0 2.0 0.00 0.05 0.00 94 1017.0
20260906093019 52 23 0.0 0.0 0.00 0.05 0.00 94 1017.1
20260906092021 52 23 1.0 2.0 0.00 0.05 0.00 94 1017.1
20260906091019 52 23 1.0 2.0 0.00 0.05 0.00 94 1017.1
20260906090019 53 68 1.0 2.0 0.00 0.05 0.00 94 1017.1
20260906085019 53 68 0.0 1.0 0.00 0.05 0.00 94 1017.1
20260906084019 53 68 0.0 1.0 0.00 0.05 0.00 94 1017.1
20260906083019 53 57 0.0 0.0 0.00 0.05 0.00 93 1017.1
20260906082100 53 57 0.0 0.0 0.00 0.05 0.00 93 1017.1
20260906081019 53 57 0.0 0.0 0.00 0.05 0.00 93 1017.1
20260906080019 54 45 1.0 3.0 0.00 0.05 0.00 93 1017.1
20260906075019 54 47 0.0 0.0 0.00 0.05 0.00 92 1017.1
20260906074059 54 45 0.0 1.0 0.00 0.05 0.00 92 1017.1
20260906073019 54 22 0.0 0.0 0.00 0.05 0.00 92 1017.1
20260906072020 55 0 0.0 2.0 0.00 0.05 0.00 91 1017.1
20260906071020 55 65 0.0 0.0 0.00 0.05 0.00 92 1017.1
20260906070126 55 65 0.0 0.0 0.00 0.05 0.05 91 1017.0
20260906065018 56 68 0.0 1.0 0.00 0.05 0.05 91 1017.0
20260906064017 56 43 0.0 0.0 0.00 0.05 0.05 91 1017.0
20260906063027 56 43 0.0 0.0 0.00 0.05 0.05 90 1016.9
20260906062018 56 43 0.0 0.0 0.00 0.05 0.05 90 1016.8
20260906061018 57 45 0.0 1.0 0.00 0.05 0.05 89 1016.8
20260906060018 57 68 1.0 2.0 0.00 0.05 0.05 89 1016.9
20260906055017 57 90 1.0 3.0 0.00 0.05 0.05 89 1016.9
20260906054020 58 122 0.0 0.0 0.00 0.05 0.05 87 1016.9
20260906053020 58 67 0.0 0.0 0.00 0.05 0.05 87 1016.9
20260906052019 58 67 0.0 0.0 0.00 0.05 0.05 87 1016.9
20260906051020 59 68 1.0 2.0 0.00 0.05 0.05 86 1016.8
20260906050020 59 90 1.0 3.0 0.00 0.05 0.05 85 1016.7
20260906045019 60 135 0.0 3.0 0.00 0.05 0.05 84 1016.6
20260906044019 60 90 1.0 3.0 0.00 0.05 0.05 84 1016.6
20260906043020 60 90 2.0 5.0 0.00 0.05 0.05 83 1016.6
20260906042020 60 90 3.0 5.0 0.00 0.05 0.05 82 1016.6
20260906041019 61 68 2.0 3.0 0.00 0.05 0.05 81 1016.6
20260906040100 61 68 2.0 3.0 0.00 0.05 0.05 81 1016.5
20260906035100 61 90 2.0 3.0 0.00 0.05 0.05 80 1016.5
20260906034030 62 68 1.0 2.0 0.00 0.05 0.05 78 1016.4
20260906033100 63 113 1.0 3.0 0.00 0.05 0.05 77 1016.3
20260906032019 63 68 3.0 5.0 0.00 0.05 0.05 76 1016.2
20260906031020 64 68 2.0 4.0 0.00 0.05 0.05 74 1016.2
20260906030059 65 90 3.0 6.0 0.00 0.05 0.05 72 1016.1
20260906025019 65 68 2.0 4.0 0.00 0.05 0.05 70 1016.1
20260906024019 66 113 1.0 3.0 0.00 0.05 0.05 69 1016.1
20260906023020 66 158 5.0 11.0 0.00 0.05 0.05 68 1015.9
20260906022059 66 180 7.0 13.0 0.00 0.05 0.05 67 1015.9
20260906021019 67 180 9.0 14.0 0.00 0.05 0.05 67 1015.9
20260906020019 67 180 9.0 16.0 0.00 0.05 0.05 69 1015.7
20260906015019 68 180 6.0 10.0 0.00 0.05 0.05 67 1015.7
20260906014020 68 180 7.0 12.0 0.00 0.05 0.05 68 1015.6
20260906013019 69 180 8.0 13.0 0.00 0.05 0.05 67 1015.6
20260906012019 69 180 8.0 14.0 0.00 0.05 0.05 66 1015.6
20260906011019 69 180 8.0 12.0 0.00 0.05 0.05 64 1015.5
20260906010019 70 180 9.0 13.0 0.00 0.05 0.05 62 1015.5
20260906005020 70 180 8.0 13.0 0.00 0.05 0.05 61 1015.5
20260906004020 71 180 7.0 12.0 0.00 0.05 0.05 61 1015.5
20260906003019 71 180 8.0 13.0 0.00 0.05 0.05 59 1015.5
20260906002019 71 180 7.0 11.0 0.00 0.05 0.05 59 1015.5
20260906001019 71 180 6.0 9.0 0.00 0.05 0.05 58 1015.5
20260906000020 71 180 5.0 7.0 0.00 0.05 0.05 60 1015.5
20260905235019 71 180 3.0 5.0 0.00 0.05 0.05 60 1015.5
20260905234019 70 135 2.0 4.0 0.00 0.05 0.05 60 1015.5
20260905233019 70 135 3.0 6.0 0.00 0.05 0.05 64 1015.6
20260905232019 70 135 3.0 5.0 0.00 0.05 0.05 63 1015.6
20260905231018 70 135 4.0 7.0 0.00 0.05 0.05 62 1015.7
20260905230059 70 68 4.0 8.0 0.00 0.05 0.05 61 1015.7
20260905225018 70 90 4.0 8.0 0.00 0.05 0.05 60 1015.6
20260905224020 71 68 4.0 9.0 0.00 0.05 0.05 60 1015.8
20260905223059 71 68 5.0 9.0 0.00 0.05 0.05 59 1016.0